Location: Roah Hook
(42.4840°N, 73.7893°W)
Time: 22:51:44
(UTC+00:00)

CAS-4B - Visible Passes

Search period start: 14 December 2024 00:00
Search period end: 24 December 2024 00:00
Orbit: 432 x 451 km, 43.0° (Epoch: 14 December)

Date Brightness Start Highest point End Pass type
(mag) Time Alt. Az. Time Alt. Az. Time Alt. Az.
14 Dec ? 23:09:58 10° W 23:13:28 83° N 23:13:42 76° ENE visible
15 Dec ? 22:28:46 10° W 22:32:18 88° N 22:34:29 21° E visible
16 Dec ? 00:06:50 10° W 00:07:52 18° W 00:07:52 18° W visible
16 Dec ? 23:25:34 10° W 23:28:36 63° WNW 23:28:36 63° WNW visible
17 Dec ? 22:44:13 10° W 22:47:45 82° N 22:49:18 31° E visible
18 Dec ? 00:22:18 10° W 00:22:41 13° W 00:22:41 13° W visible
18 Dec ? 22:02:48 10° W 22:06:20 80° N 22:09:50 10° E visible
18 Dec ? 23:40:50 10° W 23:43:22 40° WSW 23:43:22 40° WSW visible
19 Dec ? 22:59:20 10° W 23:02:49 65° SSW 23:04:06 35° SE visible
20 Dec ? 22:17:45 10° W 22:21:16 75° SSW 22:24:45 10° ESE visible
20 Dec ? 23:56:07 10° W 23:58:16 21° SW 23:58:16 21° SW visible
21 Dec ? 23:14:18 10° W 23:17:21 28° SSW 23:19:10 18° SSE visible
22 Dec ? 22:32:27 10° W 22:35:41 34° SSW 22:38:53 10° SE visible
